When you browse on this site, cookies collect data to enhance your experience and personalize the content and advertising you see.
Visit our Privacy Policy to learn more. By continuing to use the site, you agree to this use of cookies and data.
EN

Hourly Weather Shaitli

Today, 18 September, Friday

Time Temperature Precipitation Wind Pressure Humidity
00:00 +9°C° 0 mm 2 mps 613 mmHg 91%
01:00 +9°C° 0 mm 2 mps 613 mmHg 90%
02:00 +8°C° 0 mm 2 mps 612 mmHg 90%
03:00 +8°C° 0 mm 2 mps 612 mmHg 89%
04:00 +8°C° 0 mm 2 mps 612 mmHg 87%
05:00 +9°C° 0 mm 1 mps 612 mmHg 85%
06:00 +10°C° 0 mm 1 mps 611 mmHg 84%
07:00 +12°C° 0 mm 1 mps 612 mmHg 76%
08:00 +15°C° 0 mm 2 mps 613 mmHg 69%
09:00 +18°C° 0 mm 2 mps 614 mmHg 60%
10:00 +20°C° 0 mm 2 mps 614 mmHg 56%
11:00 +21°C° 0 mm 2 mps 615 mmHg 52%
12:00 +22°C° 0 mm 3 mps 615 mmHg 47%
13:00 +23°C° 0 mm 2 mps 614 mmHg 47%
14:00 +23°C° 0 mm 2 mps 614 mmHg 47%
15:00 +23°C° 0 mm 2 mps 613 mmHg 46%
16:00 +19°C° 0 mm 2 mps 613 mmHg 58%
17:00 +17°C° 0 mm 2 mps 612 mmHg 70%
18:00 +14°C° 0 mm 1 mps 611 mmHg 82%
19:00 +14°C° 0 mm 1 mps 611 mmHg 82%
20:00 +13°C° 0 mm 2 mps 610 mmHg 83%
21:00 +12°C° 0 mm 2 mps 610 mmHg 83%
22:00 +12°C° 0 mm 2 mps 610 mmHg 84%
23:00 +12°C° 0 mm 2 mps 610 mmHg 85%

Tomorrow, 19 September, Saturday

Time Temperature Precipitation Wind Pressure Humidity
00:00 +10°C° 0 mm 2 mps 610 mmHg 86%
01:00 +10°C° 0 mm 2 mps 609 mmHg 85%
02:00 +10°C° 0 mm 2 mps 609 mmHg 83%
03:00 +9°C° 0 mm 2 mps 609 mmHg 82%
04:00 +9°C° 0 mm 2 mps 609 mmHg 77%
05:00 +9°C° 0 mm 2 mps 609 mmHg 73%
06:00 +10°C° 0 mm 1 mps 609 mmHg 68%
07:00 +12°C° 0 mm 2 mps 610 mmHg 66%
08:00 +14°C° 0 mm 2 mps 611 mmHg 63%
09:00 +16°C° 0 mm 2 mps 612 mmHg 60%
10:00 +17°C° 0 mm 3 mps 612 mmHg 60%
11:00 +17°C° 0 mm 3 mps 612 mmHg 61%
12:00 +17°C° 0 mm 3 mps 612 mmHg 62%
13:00 +17°C° 0.1 mm 3 mps 612 mmHg 65%
14:00 +16°C° 0.1 mm 3 mps 612 mmHg 69%
15:00 +16°C° 0.1 mm 2 mps 611 mmHg 72%
16:00 +14°C° 0 mm 2 mps 611 mmHg 76%
17:00 +13°C° 0 mm 1 mps 611 mmHg 81%
18:00 +11°C° 0 mm 1 mps 610 mmHg 85%
19:00 +11°C° 0 mm 1 mps 611 mmHg 85%
20:00 +10°C° 0 mm 1 mps 611 mmHg 85%
21:00 +10°C° 0 mm 1 mps 611 mmHg 86%
22:00 +9°C° 0 mm 1 mps 611 mmHg 85%
23:00 +9°C° 0 mm 1 mps 611 mmHg 84%

Day after tomorrow, 20 September, Sunday

Time Temperature Precipitation Wind Pressure Humidity
00:00 +9°C° 0 mm 1 mps 612 mmHg 83%
01:00 +8°C° 0 mm 1 mps 611 mmHg 85%
02:00 +8°C° 0 mm 1 mps 611 mmHg 87%
03:00 +7°C° 0 mm 1 mps 611 mmHg 89%
04:00 +7°C° 0 mm 1 mps 611 mmHg 91%
05:00 +7°C° 0 mm 1 mps 611 mmHg 92%
06:00 +7°C° 0 mm 1 mps 612 mmHg 94%
07:00 +8°C° 0 mm 2 mps 612 mmHg 88%
08:00 +9°C° 0 mm 2 mps 613 mmHg 82%
09:00 +12°C° 0 mm 2 mps 613 mmHg 76%
10:00 +13°C° 0 mm 2 mps 614 mmHg 70%
11:00 +13°C° 0 mm 3 mps 614 mmHg 64%
12:00 +14°C° 0 mm 3 mps 614 mmHg 58%
13:00 +14°C° 0 mm 3 mps 614 mmHg 59%
14:00 +14°C° 0 mm 3 mps 614 mmHg 60%
15:00 +15°C° 0 mm 2 mps 614 mmHg 62%
16:00 +13°C° 0 mm 2 mps 613 mmHg 71%
17:00 +11°C° 0 mm 1 mps 612 mmHg 80%
18:00 +8°C° 0 mm 0 mps 612 mmHg 90%
19:00 +7°C° 0 mm 0 mps 612 mmHg 90%
20:00 +7°C° 0 mm 0 mps 612 mmHg 90%
21:00 +8°C° 0 mm 1 mps 612 mmHg 90%
22:00 +7°C° 0 mm 1 mps 612 mmHg 91%
23:00 +7°C° 0 mm 1 mps 612 mmHg 91%

21 September, Monday

Time Temperature Precipitation Wind Pressure Humidity
00:00 +7°C° 0 mm 1 mps 612 mmHg 92%
01:00 +7°C° 0 mm 1 mps 612 mmHg 92%
02:00 +7°C° 0 mm 1 mps 612 mmHg 92%
03:00 +7°C° 0 mm 1 mps 612 mmHg 91%
04:00 +7°C° 0 mm 1 mps 612 mmHg 92%
05:00 +7°C° 0 mm 1 mps 612 mmHg 92%
06:00 +6°C° 0 mm 1 mps 612 mmHg 92%
07:00 +8°C° 0 mm 1 mps 613 mmHg 86%
08:00 +9°C° 0 mm 2 mps 614 mmHg 80%
09:00 +12°C° 0 mm 2 mps 615 mmHg 74%
10:00 +13°C° 0 mm 2 mps 615 mmHg 72%
11:00 +14°C° 0 mm 2 mps 616 mmHg 70%
12:00 +15°C° 0 mm 2 mps 616 mmHg 68%
13:00 +14°C° 0 mm 2 mps 616 mmHg 71%
14:00 +14°C° 0 mm 2 mps 616 mmHg 74%
15:00 +14°C° 0 mm 2 mps 615 mmHg 76%
16:00 +13°C° 0 mm 2 mps 615 mmHg 82%
17:00 +11°C° 0 mm 1 mps 614 mmHg 88%
18:00 +10°C° 0 mm 1 mps 614 mmHg 93%
19:00 +10°C° 0 mm 1 mps 614 mmHg 94%
20:00 +10°C° 0 mm 1 mps 614 mmHg 94%
21:00 +10°C° 0 mm 1 mps 614 mmHg 94%
22:00 +10°C° 0 mm 1 mps 614 mmHg 94%
23:00 +10°C° 0 mm 1 mps 614 mmHg 93%

22 September, Tuesday

Time Temperature Precipitation Wind Pressure Humidity
00:00 +10°C° 0 mm 1 mps 613 mmHg 93%
01:00 +9°C° 0 mm 1 mps 613 mmHg 93%
02:00 +9°C° 0 mm 1 mps 612 mmHg 94%
03:00 +8°C° 0 mm 1 mps 612 mmHg 94%
04:00 +8°C° 0 mm 1 mps 612 mmHg 94%
05:00 +8°C° 0 mm 1 mps 612 mmHg 93%
06:00 +8°C° 0 mm 1 mps 612 mmHg 92%
07:00 +10°C° 0 mm 1 mps 613 mmHg 85%
08:00 +13°C° 0 mm 1 mps 614 mmHg 78%
09:00 +15°C° 0 mm 1 mps 615 mmHg 71%
10:00 +16°C° 0.4 mm 1 mps 615 mmHg 70%
11:00 +17°C° 0.4 mm 2 mps 616 mmHg 69%
12:00 +18°C° 0.4 mm 2 mps 616 mmHg 67%
13:00 +17°C° 0.8 mm 2 mps 616 mmHg 69%
14:00 +17°C° 0.8 mm 2 mps 616 mmHg 70%
15:00 +18°C° 0.8 mm 1 mps 615 mmHg 71%
16:00 +15°C° 0.5 mm 1 mps 615 mmHg 78%
17:00 +14°C° 0.5 mm 1 mps 614 mmHg 86%
18:00 +12°C° 0.5 mm 1 mps 614 mmHg 93%
19:00 +12°C° 0 mm 1 mps 614 mmHg 94%
20:00 +12°C° 0 mm 1 mps 615 mmHg 94%
21:00 +12°C° 0 mm 1 mps 615 mmHg 95%
22:00 +12°C° 0 mm 1 mps 615 mmHg 95%
23:00 +12°C° 0 mm 1 mps 615 mmHg 95%

23 September, Wednesday

Time Temperature Precipitation Wind Pressure Humidity
00:00 +12°C° 0 mm 1 mps 615 mmHg 95%
01:00 +11°C° 0 mm 1 mps 615 mmHg 95%
02:00 +11°C° 0 mm 1 mps 614 mmHg 95%
03:00 +10°C° 0 mm 1 mps 614 mmHg 95%
04:00 +10°C° 0 mm 1 mps 614 mmHg 95%
05:00 +10°C° 0 mm 1 mps 614 mmHg 95%
06:00 +10°C° 0 mm 1 mps 615 mmHg 95%
07:00 +11°C° 0 mm 1 mps 615 mmHg 92%
08:00 +12°C° 0 mm 1 mps 615 mmHg 90%
09:00 +13°C° 0 mm 1 mps 616 mmHg 87%
10:00 +14°C° 0 mm 2 mps 616 mmHg 84%
11:00 +14°C° 0 mm 2 mps 616 mmHg 80%
12:00 +15°C° 0 mm 2 mps 616 mmHg 77%
13:00 +15°C° 0 mm 2 mps 616 mmHg 77%
14:00 +15°C° 0 mm 2 mps 616 mmHg 77%
15:00 +15°C° 0 mm 2 mps 616 mmHg 77%
16:00 +14°C° 0 mm 2 mps 615 mmHg 82%
17:00 +13°C° 0 mm 2 mps 615 mmHg 87%
18:00 +12°C° 0 mm 1 mps 614 mmHg 93%
19:00 +12°C° 0 mm 2 mps 614 mmHg 92%
20:00 +10°C° 0 mm 2 mps 614 mmHg 91%
21:00 +10°C° 0 mm 2 mps 614 mmHg 91%
22:00 +10°C° 0 mm 2 mps 614 mmHg 91%
23:00 +10°C° 0 mm 2 mps 614 mmHg 92%
Show more